CPT885 PHNL-PHMK

Flight info

Callsign CPT885
Flight time 0h 57m
Altitude 7000
Route PALAY3 PALAY V8 MKK
Aircraft C208/L-SDFGR/C

Departure

Time 2026-04-11 04:10
Airport Daniel K. Inouye International Airport (PHNL)

Arrival

Time 2026-04-11 05:08
Airport Molokai Airport (PHMK)
Time Latitude Longitude Altitude Speed Heading
2026-04-11 03:35 21.31694 -157.91808 23 ft 0 kts 54°
2026-04-11 03:54 21.31694 -157.91807 23 ft 0 kts 54°
2026-04-11 04:06 21.31701 -157.91798 24 ft 5 kts 36°
2026-04-11 04:06 21.31740 -157.91818 24 ft 0 kts 323°
2026-04-11 04:06 21.31741 -157.91819 23 ft 2 kts 323°
2026-04-11 04:07 21.31773 -157.91845 23 ft 10 kts 318°
2026-04-11 04:07 21.31753 -157.91912 25 ft 14 kts 233°
2026-04-11 04:07 21.31681 -157.92014 24 ft 21 kts 232°
2026-04-11 04:07 21.31620 -157.92139 23 ft 12 kts 298°
2026-04-11 04:08 21.31664 -157.92176 23 ft 0 kts 322°
2026-04-11 04:08 21.31667 -157.92178 23 ft 3 kts 322°
2026-04-11 04:08 21.31706 -157.92210 23 ft 11 kts 325°
2026-04-11 04:08 21.31781 -157.92269 23 ft 12 kts 321°
2026-04-11 04:09 21.31860 -157.92293 23 ft 16 kts 39°
2026-04-11 04:09 21.31881 -157.92269 24 ft 0 kts 52°
2026-04-11 04:09 21.31948 -157.92174 24 ft 42 kts 53°
2026-04-11 04:10 21.32214 -157.91790 68 ft 79 kts 54°
2026-04-11 04:10 21.32573 -157.91296 263 ft 90 kts 50°
2026-04-11 04:10 21.33006 -157.90706 476 ft 104 kts 52°
2026-04-11 04:10 21.33430 -157.90086 805 ft 106 kts 56°
2026-04-11 04:11 21.33556 -157.89297 1019 ft 113 kts 112°
2026-04-11 04:11 21.33159 -157.88562 1250 ft 115 kts 132°
2026-04-11 04:11 21.32698 -157.87838 1545 ft 121 kts 134°
2026-04-11 04:11 21.32205 -157.87072 1841 ft 129 kts 133°
2026-04-11 04:12 21.31671 -157.86271 2111 ft 135 kts 135°
2026-04-11 04:12 21.31090 -157.85466 2359 ft 134 kts 146°
2026-04-11 04:12 21.30329 -157.84923 2620 ft 132 kts 156°
2026-04-11 04:12 21.29711 -157.84167 2868 ft 139 kts 128°
2026-04-11 04:13 21.29144 -157.83352 3125 ft 135 kts 137°
2026-04-11 04:13 21.28610 -157.82516 3369 ft 134 kts 136°
2026-04-11 04:13 21.28029 -157.81732 3604 ft 134 kts 136°
2026-04-11 04:13 21.27462 -157.80948 3843 ft 136 kts 137°
2026-04-11 04:14 21.26883 -157.80127 4088 ft 138 kts 134°
2026-04-11 04:14 21.26293 -157.79339 4303 ft 132 kts 146°
2026-04-11 04:14 21.25703 -157.78562 4539 ft 137 kts 133°
2026-04-11 04:14 21.25176 -157.77698 4795 ft 138 kts 135°
2026-04-11 04:15 21.24015 -157.76015 5251 ft 144 kts 135°
2026-04-11 04:15 21.23518 -157.75083 5498 ft 153 kts 110°
2026-04-11 04:15 21.23374 -157.73936 5752 ft 156 kts 101°
2026-04-11 04:16 21.23264 -157.72765 6007 ft 159 kts 101°
2026-04-11 04:16 21.23176 -157.71584 6261 ft 162 kts 98°
2026-04-11 04:16 21.23100 -157.70368 6501 ft 164 kts 98°
2026-04-11 04:16 21.23019 -157.69141 6717 ft 166 kts 98°
2026-04-11 04:17 21.22971 -157.67899 6952 ft 168 kts 87°
2026-04-11 04:17 21.23187 -157.66617 6996 ft 182 kts 78°
2026-04-11 04:17 21.23556 -157.65279 7003 ft 192 kts 70°
2026-04-11 04:17 21.24029 -157.63915 7003 ft 199 kts 69°
2026-04-11 04:18 21.24514 -157.62508 7004 ft 203 kts 69°
2026-04-11 04:18 21.25009 -157.61076 7004 ft 206 kts 70°
2026-04-11 04:18 21.25512 -157.59625 7002 ft 208 kts 70°
2026-04-11 04:18 21.26009 -157.58197 7002 ft 205 kts 69°
2026-04-11 04:19 21.26437 -157.56745 6988 ft 203 kts 86°
2026-04-11 04:19 21.26181 -157.55313 6987 ft 193 kts 120°
2026-04-11 04:19 21.25400 -157.54209 6991 ft 183 kts 144°
2026-04-11 04:19 21.24459 -157.53298 6993 ft 182 kts 147°
2026-04-11 04:20 21.23494 -157.52409 6998 ft 183 kts 147°
2026-04-11 04:20 21.22526 -157.51519 7003 ft 184 kts 147°
2026-04-11 04:20 21.21558 -157.50623 7005 ft 183 kts 147°
2026-04-11 04:20 21.20593 -157.49735 6999 ft 183 kts 147°
2026-04-11 04:21 21.19617 -157.48859 6995 ft 183 kts 147°
2026-04-11 04:21 21.18648 -157.47977 6996 ft 183 kts 146°
2026-04-11 04:21 21.17716 -157.47051 6992 ft 182 kts 143°
2026-04-11 04:21 21.16800 -157.46151 6992 ft 179 kts 148°
2026-04-11 04:22 21.15839 -157.45299 6996 ft 179 kts 148°
2026-04-11 04:22 21.14883 -157.44439 6996 ft 180 kts 148°
2026-04-11 04:22 21.13920 -157.43579 6937 ft 183 kts 148°
2026-04-11 04:22 21.12947 -157.42707 6801 ft 178 kts 148°
2026-04-11 04:23 21.12024 -157.41866 6653 ft 172 kts 148°
2026-04-11 04:23 21.11120 -157.41038 6467 ft 171 kts 148°
2026-04-11 04:23 21.10216 -157.40206 6249 ft 171 kts 148°
2026-04-11 04:23 21.09318 -157.39363 6041 ft 171 kts 147°
2026-04-11 04:24 21.08429 -157.38528 5865 ft 169 kts 147°
2026-04-11 04:24 21.07539 -157.37705 5704 ft 169 kts 148°
2026-04-11 04:24 21.06648 -157.36887 5527 ft 168 kts 147°
2026-04-11 04:24 21.05783 -157.36080 5356 ft 166 kts 147°
2026-04-11 04:25 21.04916 -157.35271 5098 ft 163 kts 148°
2026-04-11 04:25 21.04078 -157.34487 4825 ft 157 kts 148°
2026-04-11 04:25 21.03268 -157.33715 4546 ft 155 kts 148°
2026-04-11 04:25 21.02474 -157.32949 4269 ft 152 kts 147°
2026-04-11 04:26 21.01687 -157.32194 3997 ft 151 kts 147°
2026-04-11 04:26 21.01163 -157.31184 3722 ft 168 kts 104°
2026-04-11 04:26 21.01386 -157.29942 3459 ft 173 kts 71°
2026-04-11 04:26 21.01989 -157.28830 3198 ft 172 kts 60°
2026-04-11 04:27 21.02624 -157.27817 2927 ft 162 kts 59°
2026-04-11 04:27 21.03266 -157.26830 2648 ft 160 kts 60°
2026-04-11 04:27 21.03903 -157.25874 2376 ft 156 kts 60°
2026-04-11 04:27 21.04538 -157.24943 2101 ft 155 kts 60°
2026-04-11 04:28 21.05173 -157.24060 2047 ft 142 kts 58°
2026-04-11 04:28 21.05764 -157.23256 2042 ft 132 kts 60°
2026-04-11 04:28 21.06303 -157.22494 2041 ft 125 kts 60°
2026-04-11 04:28 21.06835 -157.21766 2039 ft 125 kts 61°
2026-04-11 04:29 21.07377 -157.21047 2043 ft 123 kts 60°
2026-04-11 04:29 21.07906 -157.20341 2043 ft 123 kts 60°
2026-04-11 04:29 21.08439 -157.19637 2042 ft 120 kts 59°
2026-04-11 04:29 21.08965 -157.18958 2044 ft 117 kts 60°
2026-04-11 04:30 21.09454 -157.18265 2010 ft 115 kts 75°
2026-04-11 04:30 21.09771 -157.17472 2023 ft 118 kts 78°
2026-04-11 04:30 21.10104 -157.16655 2028 ft 120 kts 78°
2026-04-11 04:30 21.10438 -157.15835 2023 ft 119 kts 78°
2026-04-11 04:31 21.10772 -157.15021 2027 ft 120 kts 77°
2026-04-11 04:31 21.11092 -157.14205 2025 ft 121 kts 77°
2026-04-11 04:31 21.11416 -157.13363 2023 ft 121 kts 78°
2026-04-11 04:31 21.11739 -157.12527 2027 ft 122 kts 78°
2026-04-11 04:32 21.12066 -157.11698 1974 ft 122 kts 77°
2026-04-11 04:32 21.12400 -157.10840 1867 ft 126 kts 79°
2026-04-11 04:32 21.12699 -157.09950 1753 ft 129 kts 76°
2026-04-11 04:32 21.13200 -157.09125 1641 ft 134 kts 59°
2026-04-11 04:33 21.13754 -157.08344 1532 ft 127 kts 60°
2026-04-11 04:33 21.14259 -157.07634 1525 ft 119 kts 61°
2026-04-11 04:33 21.14754 -157.06934 1528 ft 116 kts 62°
2026-04-11 04:33 21.15245 -157.06261 1522 ft 113 kts 60°
2026-04-11 04:34 21.15728 -157.05603 1500 ft 109 kts 62°
2026-04-11 04:34 21.16253 -157.05034 1536 ft 117 kts 18°
2026-04-11 04:34 21.17064 -157.05168 1456 ft 122 kts 313°
2026-04-11 04:34 21.17410 -157.05869 1344 ft 99 kts 241°
2026-04-11 04:35 21.17074 -157.06496 1255 ft 106 kts 229°
2026-04-11 04:35 21.16638 -157.07111 1108 ft 92 kts 225°
2026-04-11 04:35 21.16342 -157.07618 1042 ft 77 kts 229°
2026-04-11 04:35 21.16075 -157.08082 956 ft 71 kts 231°
2026-04-11 04:36 21.15854 -157.08598 1014 ft 84 kts 232°
2026-04-11 04:36 21.15590 -157.09211 1165 ft 101 kts 233°
2026-04-11 04:36 21.15372 -157.09641 1432 ft 96 kts 233°
2026-04-11 04:37 21.15328 -157.09730 1494 ft 94 kts 235°
2026-04-11 04:37 21.15038 -157.10362 1830 ft 96 kts 232°
2026-04-11 04:37 21.15045 -157.11149 2108 ft 125 kts 290°
2026-04-11 04:37 21.15824 -157.11663 2386 ft 147 kts 350°
2026-04-11 04:38 21.16860 -157.11553 2678 ft 151 kts
2026-04-11 04:38 21.17911 -157.11410 2975 ft 153 kts
2026-04-11 04:38 21.19032 -157.11235 3035 ft 173 kts
2026-04-11 04:38 21.20288 -157.11077 3021 ft 187 kts
2026-04-11 04:39 21.21592 -157.10871 3033 ft 191 kts
2026-04-11 04:39 21.22907 -157.10662 3029 ft 195 kts
2026-04-11 04:39 21.24263 -157.10459 3023 ft 199 kts
2026-04-11 04:39 21.25633 -157.10245 3007 ft 198 kts 14°
2026-04-11 04:40 21.26785 -157.09491 3010 ft 194 kts 54°
2026-04-11 04:40 21.27231 -157.08200 3022 ft 182 kts 95°
2026-04-11 04:40 21.27121 -157.06850 2860 ft 176 kts 104°
2026-04-11 04:40 21.26644 -157.05741 2990 ft 153 kts 147°
2026-04-11 04:41 21.25697 -157.05514 3030 ft 143 kts 191°
2026-04-11 04:41 21.24726 -157.05750 3029 ft 143 kts 196°
2026-04-11 04:41 21.23772 -157.06061 3027 ft 143 kts 198°
2026-04-11 04:41 21.22817 -157.06369 3027 ft 144 kts 195°
2026-04-11 04:42 21.22170 -157.06573 3025 ft 144 kts 202°
2026-04-11 04:42 21.21261 -157.06993 3031 ft 145 kts 201°
2026-04-11 04:42 21.20292 -157.07293 3019 ft 145 kts 197°
2026-04-11 04:42 21.19322 -157.07606 3013 ft 144 kts 198°
2026-04-11 04:43 21.18373 -157.07892 3012 ft 138 kts 195°
2026-04-11 04:43 21.17443 -157.08182 3011 ft 140 kts 199°
2026-04-11 04:43 21.16508 -157.08510 3014 ft 142 kts 199°
2026-04-11 04:43 21.15563 -157.08838 3016 ft 143 kts 199°
2026-04-11 04:44 21.14628 -157.09159 3012 ft 144 kts 198°
2026-04-11 04:44 21.13677 -157.09505 3008 ft 142 kts 198°
2026-04-11 04:44 21.12755 -157.09843 3010 ft 139 kts 199°
2026-04-11 04:44 21.11832 -157.10173 3011 ft 140 kts 198°
2026-04-11 04:45 21.10910 -157.10505 3010 ft 139 kts 198°
2026-04-11 04:45 21.10001 -157.10856 3010 ft 138 kts 198°
2026-04-11 04:45 21.09095 -157.11201 3060 ft 138 kts 199°
2026-04-11 04:45 21.08195 -157.11529 3059 ft 138 kts 199°
2026-04-11 04:46 21.07289 -157.11866 3062 ft 138 kts 198°
2026-04-11 04:46 21.06380 -157.12214 3066 ft 138 kts 199°
2026-04-11 04:46 21.05557 -157.12729 3065 ft 140 kts 222°
2026-04-11 04:46 21.05029 -157.13621 3062 ft 144 kts 237°
2026-04-11 04:47 21.04600 -157.14592 3066 ft 144 kts 237°
2026-04-11 04:47 21.04163 -157.15567 3060 ft 146 kts 237°
2026-04-11 04:47 21.03722 -157.16551 3059 ft 146 kts 238°
2026-04-11 04:47 21.03276 -157.17531 3056 ft 146 kts 237°
2026-04-11 04:48 21.02825 -157.18507 3056 ft 146 kts 237°
2026-04-11 04:48 21.02386 -157.19454 3056 ft 143 kts 237°
2026-04-11 04:48 21.01958 -157.20406 3056 ft 141 kts 238°
2026-04-11 04:48 21.01534 -157.21358 3051 ft 142 kts 237°
2026-04-11 04:49 21.01090 -157.22309 3059 ft 143 kts 238°
2026-04-11 04:49 21.00641 -157.23257 3060 ft 142 kts 237°
2026-04-11 04:49 21.00188 -157.24205 3058 ft 143 kts 237°
2026-04-11 04:49 20.99732 -157.25156 3058 ft 144 kts 238°
2026-04-11 04:50 20.99274 -157.26112 3062 ft 145 kts 238°
2026-04-11 04:50 20.98802 -157.27073 3062 ft 146 kts 238°
2026-04-11 04:50 20.98327 -157.28030 3060 ft 145 kts 237°
2026-04-11 04:50 20.97857 -157.28984 3058 ft 144 kts 237°
2026-04-11 04:51 20.97392 -157.29935 3056 ft 144 kts 238°
2026-04-11 04:51 20.96948 -157.30885 3050 ft 146 kts 245°
2026-04-11 04:51 20.97029 -157.31992 3047 ft 161 kts 289°
2026-04-11 04:51 20.97893 -157.32803 3047 ft 176 kts 333°
2026-04-11 04:52 20.99131 -157.32825 3046 ft 185 kts 17°
2026-04-11 04:52 21.00164 -157.32020 3044 ft 185 kts 50°
2026-04-11 04:52 21.01007 -157.30983 3054 ft 185 kts 51°
2026-04-11 04:52 21.01857 -157.29944 3056 ft 186 kts 51°
2026-04-11 04:53 21.02707 -157.28910 3057 ft 184 kts 51°
2026-04-11 04:53 21.03557 -157.27875 3064 ft 185 kts 51°
2026-04-11 04:53 21.04396 -157.26861 3067 ft 183 kts 52°
2026-04-11 04:53 21.05244 -157.25839 3066 ft 184 kts 51°
2026-04-11 04:54 21.06081 -157.24805 3066 ft 183 kts 53°
2026-04-11 04:54 21.06603 -157.23620 3048 ft 172 kts 91°
2026-04-11 04:54 21.06317 -157.22456 3046 ft 158 kts 132°
2026-04-11 04:54 21.05454 -157.21875 3051 ft 144 kts 175°
2026-04-11 04:55 21.04456 -157.21889 2963 ft 141 kts 186°
2026-04-11 04:55 21.03529 -157.21930 2832 ft 126 kts 185°
2026-04-11 04:55 21.02690 -157.21961 2694 ft 117 kts 186°
2026-04-11 04:55 21.01891 -157.21991 2565 ft 113 kts 185°
2026-04-11 04:56 21.01129 -157.22042 2558 ft 106 kts 186°
2026-04-11 04:56 21.00405 -157.22095 2556 ft 102 kts 185°
2026-04-11 04:56 20.99768 -157.21795 2560 ft 111 kts 136°
2026-04-11 04:56 20.99537 -157.20975 2564 ft 126 kts 96°
2026-04-11 04:57 20.99822 -157.20062 2563 ft 132 kts 80°
2026-04-11 04:57 21.00119 -157.19137 2562 ft 131 kts 83°
2026-04-11 04:57 21.00403 -157.18206 2563 ft 131 kts 83°
2026-04-11 04:57 21.00683 -157.17274 2568 ft 132 kts 83°
2026-04-11 04:58 21.00962 -157.16336 2578 ft 132 kts 84°
2026-04-11 04:58 21.01241 -157.15397 2581 ft 133 kts 83°
2026-04-11 04:58 21.01522 -157.14453 2587 ft 133 kts 84°
2026-04-11 04:58 21.01798 -157.13519 2588 ft 133 kts 83°
2026-04-11 04:59 21.02081 -157.12565 2589 ft 135 kts 83°
2026-04-11 04:59 21.02179 -157.11623 2582 ft 121 kts 113°
2026-04-11 04:59 21.01868 -157.10833 2583 ft 111 kts 136°
2026-04-11 04:59 21.01320 -157.10306 2583 ft 103 kts 157°
2026-04-11 05:00 21.00655 -157.10072 2584 ft 100 kts 176°
2026-04-11 05:00 21.00019 -157.10276 2582 ft 102 kts 218°
2026-04-11 05:00 20.99697 -157.10975 2576 ft 117 kts 252°
2026-04-11 05:00 21.00024 -157.11841 2577 ft 142 kts 308°
2026-04-11 05:01 21.00971 -157.12244 2585 ft 150 kts 344°
2026-04-11 05:01 21.01987 -157.12468 2583 ft 151 kts 349°
2026-04-11 05:01 21.02981 -157.12312 2593 ft 139 kts 17°
2026-04-11 05:01 21.03912 -157.12083 2535 ft 139 kts 12°
2026-04-11 05:02 21.04873 -157.11866 2397 ft 142 kts 15°
2026-04-11 05:02 21.05850 -157.11640 2264 ft 145 kts 14°
2026-04-11 05:02 21.06826 -157.11419 2144 ft 141 kts 14°
2026-04-11 05:02 21.07764 -157.11204 2078 ft 134 kts 14°
2026-04-11 05:03 21.08654 -157.11004 2063 ft 128 kts 13°
2026-04-11 05:03 21.09512 -157.10809 2046 ft 124 kts 13°
2026-04-11 05:03 21.10379 -157.10613 1926 ft 130 kts 14°
2026-04-11 05:03 21.11257 -157.10412 1814 ft 131 kts 13°
2026-04-11 05:04 21.12160 -157.10200 1690 ft 130 kts 19°
2026-04-11 05:04 21.12841 -157.09644 1564 ft 124 kts 57°
2026-04-11 05:04 21.13421 -157.08995 1560 ft 118 kts 52°
2026-04-11 05:04 21.13978 -157.08375 1569 ft 107 kts 54°
2026-04-11 05:05 21.15007 -157.07289 1554 ft 103 kts 53°
2026-04-11 05:05 21.15503 -157.06749 1566 ft 103 kts 54°
2026-04-11 05:05 21.15984 -157.06181 1566 ft 100 kts 62°
2026-04-11 05:06 21.16535 -157.05735 1373 ft 110 kts
2026-04-11 05:06 21.17101 -157.06091 1330 ft 85 kts 258°
2026-04-11 05:06 21.16926 -157.06603 1212 ft 76 kts 224°
2026-04-11 05:06 21.16605 -157.07132 1085 ft 89 kts 227°
2026-04-11 05:07 21.16291 -157.07670 932 ft 79 kts 224°
2026-04-11 05:07 21.16016 -157.08196 825 ft 80 kts 226°
2026-04-11 05:07 21.15739 -157.08679 619 ft 74 kts 227°
2026-04-11 05:07 21.15484 -157.09137 480 ft 66 kts 224°
2026-04-11 05:08 21.15293 -157.09490 462 ft 35 kts 241°
2026-04-11 05:08 21.15188 -157.09689 460 ft 29 kts 248°
2026-04-11 05:08 21.15221 -157.09754 460 ft 14 kts 16°
2026-04-11 05:08 21.15282 -157.09659 461 ft 20 kts 59°
2026-04-11 05:09 21.15349 -157.09536 462 ft 16 kts 60°
2026-04-11 05:09 21.15409 -157.09423 462 ft 16 kts 60°
2026-04-11 05:09 21.15462 -157.09324 462 ft 9 kts 59°
2026-04-11 05:09 21.15478 -157.09315 462 ft 3 kts 344°
2026-04-11 05:10 21.15498 -157.09314 462 ft 3 kts 51°
2026-04-11 05:10 21.15503 -157.09306 462 ft 0 kts 61°